Orbital Elements at Epoch 2459000.5 (2020-May-31.0) TDB
Reference: JPL 15 (heliocentric ecliptic J2000)
Element | Value | Uncertainty (1-sigma) | Units |
e | .05848812202728163 | 5.8553e-08 | |
a | 2.646615671134751 | 2.3575e-08 | au |
q | 2.491820090802106 | 1.6157e-07 | au |
i | 7.902952520998569 | 6.3623e-06 | deg |
node | 178.6111611222355 | 3.1002e-05 | deg |
peri | 6.35959812766775 | 4.9718e-05 | deg |
M | 1.014519251229099 | 3.7575e-05 | deg |
tp | 2458996.068073614096 (2020-May-26.56807361) | 0.00016416 | TDB |
period | 1572.659658249372 4.31 | 2.1013e-05 5.753e-08 | d yr |
n | .228911575439494 | 3.0586e-09 | deg/d |
Q | 2.801411251467397 | 2.4954e-08 | au |
|
| | Orbit Determination Parameters
Additional Information
|